• Join FlightAware (Why Join?)
  • Login
  • US Flag 
01:31PM EST


 

Airport Tracker/Info


-or-


 

Live Flight TrackerFlight Track Log ✈ N1926A ✈ 28-Apr-2013 ✈ KECP - 41A

Flight Track Log - Related Links

Times and Time Zones

All times are in EDT time to prevent confusion due to time zone crossing. See the N1926A flight status page for this flight to view local times or setup timezone preferences in your user account.

Time Position Orientation Groundspeed Altitude Reporting Facility
EDT Latitude Longitude Course Direction KTS MPH feet Rate Location/Type
07:13PM 30.3783 -85.7556 358° North 129 148 2,300  Level Jacksonville Center
07:14PM 30.4411 -85.7572 359° North 134 154 3,500 1,200 Climbing Jacksonville Center
07:15PM 30.9085 -85.8158 358° North  Level Estimated
07:15PM 30.5078 -85.7642 355° North 183 211 4,700  Level Jacksonville Center
07:16PM 30.5744 -85.7661 359° North 214 246 5,900 1,200 Climbing Jacksonville Center
07:17PM 30.6392 -85.7706 357° North 232 267 7,200 1,200 Climbing Jacksonville Center
07:18PM 30.7078 -85.7750 357° North 237 273 8,400 1,200 Climbing Jacksonville Center
07:19PM 30.7747 -85.7747 360° North 237 273 9,700 1,200 Climbing Jacksonville Center
07:20PM 30.8408 -85.7961 344° North 237 273 10,900 1,260 Climbing Jacksonville Center
07:21PM 30.9053 -85.8197 343° North 237 273 12,300 1,020 Climbing Jacksonville Center
07:22PM 30.9714 -85.8411 344° North 242 278 13,000 300 Climbing Jacksonville Center
07:23PM 31.0461 -85.8628 346° North 247 284 13,000  Level Jacksonville Center
07:24PM 31.1125 -85.8772 349° North 259 298 13,000  Level Jacksonville Center
07:25PM 31.1747 -85.8961 345° North 251 289 13,000  Level Jacksonville Center
07:26PM 31.2372 -85.9078 351° North 233 268 13,100  Climbing Jacksonville Center
07:27PM 31.3083 -85.9028 North 233 268 13,000 -60 Descending Jacksonville Center
07:28PM 31.3722 -85.9317 339° North 233 268 13,000  Level Jacksonville Center
07:29PM 31.4319 -85.9700 331° Northwest 238 274 13,100  Climbing Jacksonville Center
07:30PM 31.4942 -85.9844 349° North 238 274 13,100  Level Jacksonville Center
07:32PM 31.6375 -85.9731 North 241 277 13,100  Level Atlanta Center
07:33PM 31.7169 -85.9625 North 273 314 13,100 -120 Level Atlanta Center
07:34PM 31.7944 -85.9544 North 280 322 12,900 -360 Descending Atlanta Center
07:35PM 31.8781 -85.9442 North 285 328 12,400 -540 Descending Atlanta Center
07:36PM 31.9575 -85.9358 North 285 328 11,900 -660 Descending Atlanta Center
07:37PM 32.0389 -85.9303 North 290 334 11,200 -1,320 Descending Atlanta Center
07:38PM 32.1225 -85.9247 North 290 334 9,300 -1,800 Descending Atlanta Center
07:39PM 32.1956 -85.9189 North 277 319 7,700 -1,740 Descending Atlanta Center
07:40PM 32.2625 -85.9081 North 257 296 5,900 -1,800 Descending Atlanta Center